![]() |
EMODnet Physics ERDDAP
Easier access to scientific data |
log in|
Brought to you by EMODnet Physics |
| Dataset Title: | NDBC - Collection of dew point temperature (DEWT) TimeSeries - IN SITU MultiPointTimeSeriesObservation
|
| Institution: | NDBC (Dataset ID: TS_DEWT_NDBC) |
| Information: | Summary
| License
| FGDC
| ISO 19115
| Metadata
| Background
| Subset
| Data Access Form
| Make a graph
|
| Name | Last modified | Size | Description | |
|---|---|---|---|---|
| Parent Directory | - | - | ||
| 46251_TS_DEWT_012014.nc | 27-Oct-2024 03:13 | 429490 | ||
| 46251_TS_DEWT_012016.nc | 27-Oct-2024 03:13 | 429496 | ||
| 46251_TS_DEWT_012017.nc | 27-Oct-2024 03:13 | 429493 | ||
| 46251_TS_DEWT_012018.nc | 27-Oct-2024 03:13 | 429455 | ||
| 46251_TS_DEWT_012019.nc | 27-Oct-2024 03:13 | 448219 | ||
| 46251_TS_DEWT_012020.nc | 27-Oct-2024 03:13 | 449607 | ||
| 46251_TS_DEWT_012021.nc | 27-Oct-2024 03:13 | 449824 | ||
| 46251_TS_DEWT_012022.nc | 27-Oct-2024 03:13 | 450271 | ||
| 46251_TS_DEWT_012023.nc | 27-Oct-2024 03:13 | 448949 | ||
| 46251_TS_DEWT_012024.nc | 27-Oct-2024 03:13 | 449520 | ||
| 46251_TS_DEWT_022014.nc | 27-Oct-2024 03:13 | 442391 | ||
| 46251_TS_DEWT_022016.nc | 27-Oct-2024 03:13 | 449362 | ||
| 46251_TS_DEWT_022017.nc | 27-Oct-2024 03:13 | 429496 | ||
| 46251_TS_DEWT_022018.nc | 27-Oct-2024 03:14 | 429491 | ||
| 46251_TS_DEWT_022019.nc | 27-Oct-2024 03:14 | 1110201 | ||
| 46251_TS_DEWT_022020.nc | 27-Oct-2024 03:14 | 1030644 | ||
| 46251_TS_DEWT_022021.nc | 27-Oct-2024 03:14 | 1081951 | ||
| 46251_TS_DEWT_022022.nc | 27-Oct-2024 03:14 | 1115154 | ||
| 46251_TS_DEWT_022023.nc | 27-Oct-2024 03:14 | 5251957 | ||
| 46251_TS_DEWT_022024.nc | 16-Sep-2024 16:51 | 429608 | ||
| 46251_TS_DEWT_032014.nc | 27-Oct-2024 03:14 | 429606 | ||
| 46251_TS_DEWT_032016.nc | 27-Oct-2024 03:14 | 429605 | ||
| 46251_TS_DEWT_032017.nc | 27-Oct-2024 03:14 | 429598 | ||
| 46251_TS_DEWT_032018.nc | 27-Oct-2024 03:14 | 429600 | ||
| 46251_TS_DEWT_032019.nc | 27-Oct-2024 03:14 | 429540 | ||
| 46251_TS_DEWT_032020.nc | 27-Oct-2024 03:14 | 429597 | ||
| 46251_TS_DEWT_032021.nc | 27-Oct-2024 03:14 | 429609 | ||
| 46251_TS_DEWT_032022.nc | 27-Oct-2024 03:14 | 429615 | ||
| 46251_TS_DEWT_032023.nc | 27-Oct-2024 03:14 | 429616 | ||
| 46251_TS_DEWT_042014.nc | 27-Oct-2024 03:14 | 429590 | ||
| 46251_TS_DEWT_042016.nc | 27-Oct-2024 03:14 | 429611 | ||
| 46251_TS_DEWT_042017.nc | 27-Oct-2024 03:14 | 429618 | ||
| 46251_TS_DEWT_042018.nc | 27-Oct-2024 03:14 | 429609 | ||
| 46251_TS_DEWT_042019.nc | 27-Oct-2024 03:14 | 429592 | ||
| 46251_TS_DEWT_042020.nc | 27-Oct-2024 03:15 | 429618 | ||
| 46251_TS_DEWT_042021.nc | 27-Oct-2024 03:15 | 429611 | ||
| 46251_TS_DEWT_042022.nc | 27-Oct-2024 03:15 | 429610 | ||
| 46251_TS_DEWT_042023.nc | 27-Oct-2024 03:15 | 429621 | ||
| 46251_TS_DEWT_052014.nc | 27-Oct-2024 03:15 | 429622 | ||
| 46251_TS_DEWT_052016.nc | 27-Oct-2024 03:15 | 429611 | ||
| 46251_TS_DEWT_052017.nc | 27-Oct-2024 03:15 | 429616 | ||
| 46251_TS_DEWT_052018.nc | 27-Oct-2024 03:15 | 429622 | ||
| 46251_TS_DEWT_052019.nc | 27-Oct-2024 03:15 | 429609 | ||
| 46251_TS_DEWT_052020.nc | 27-Oct-2024 03:15 | 429838 | ||
| 46251_TS_DEWT_052021.nc | 27-Oct-2024 03:15 | 429834 | ||
| 46251_TS_DEWT_052022.nc | 27-Oct-2024 03:15 | 429831 | ||
| 46251_TS_DEWT_052023.nc | 27-Oct-2024 03:15 | 429838 | ||
| 46251_TS_DEWT_062014.nc | 27-Oct-2024 03:15 | 451303 | ||
| 46251_TS_DEWT_062016.nc | 27-Oct-2024 03:15 | 450745 | ||
| 46251_TS_DEWT_062017.nc | 27-Oct-2024 03:15 | 450647 | ||
| 46251_TS_DEWT_062018.nc | 27-Oct-2024 03:15 | 450691 | ||
| 46251_TS_DEWT_062019.nc | 27-Oct-2024 03:15 | 450386 | ||
| 46251_TS_DEWT_062020.nc | 27-Oct-2024 03:15 | 450813 | ||
| 46251_TS_DEWT_062021.nc | 27-Oct-2024 03:15 | 429836 | ||
| 46251_TS_DEWT_062022.nc | 27-Oct-2024 03:16 | 450778 | ||
| 46251_TS_DEWT_062023.nc | 27-Oct-2024 03:16 | 429836 | ||
| 46251_TS_DEWT_072014.nc | 27-Oct-2024 03:16 | 429814 | ||
| 46251_TS_DEWT_072015.nc | 27-Oct-2024 03:16 | 1264542 | ||
| 46251_TS_DEWT_072016.nc | 27-Oct-2024 03:16 | 1267432 | ||
| 46251_TS_DEWT_072017.nc | 27-Oct-2024 03:16 | 471290 | ||
| 46251_TS_DEWT_072018.nc | 27-Oct-2024 03:16 | 681356 | ||
| 46251_TS_DEWT_072019.nc | 27-Oct-2024 03:16 | 1261254 | ||
| 46251_TS_DEWT_072020.nc | 27-Oct-2024 03:16 | 1264741 | ||
| 46251_TS_DEWT_072021.nc | 27-Oct-2024 03:16 | 4796041 | ||
| 46251_TS_DEWT_072022.nc | 27-Oct-2024 03:16 | 429605 | ||
| 46251_TS_DEWT_072023.nc | 27-Oct-2024 03:16 | 429607 | ||
| 46251_TS_DEWT_082015.nc | 27-Oct-2024 03:16 | 429606 | ||
| 46251_TS_DEWT_082016.nc | 27-Oct-2024 03:16 | 429605 | ||
| 46251_TS_DEWT_082017.nc | 27-Oct-2024 03:16 | 429603 | ||
| 46251_TS_DEWT_082018.nc | 27-Oct-2024 03:16 | 429598 | ||
| 46251_TS_DEWT_082019.nc | 27-Oct-2024 03:16 | 429601 | ||
| 46251_TS_DEWT_082020.nc | 27-Oct-2024 03:17 | 429619 | ||
| 46251_TS_DEWT_082021.nc | 27-Oct-2024 03:17 | 429611 | ||
| 46251_TS_DEWT_082022.nc | 27-Oct-2024 03:17 | 429596 | ||
| 46251_TS_DEWT_082023.nc | 27-Oct-2024 03:17 | 429616 | ||
| 46251_TS_DEWT_092015.nc | 27-Oct-2024 03:17 | 429612 | ||
| 46251_TS_DEWT_092016.nc | 27-Oct-2024 03:17 | 429602 | ||
| 46251_TS_DEWT_092017.nc | 27-Oct-2024 03:17 | 429620 | ||
| 46251_TS_DEWT_092018.nc | 27-Oct-2024 03:17 | 429609 | ||
| 46251_TS_DEWT_092019.nc | 27-Oct-2024 03:17 | 429610 | ||
| 46251_TS_DEWT_092020.nc | 27-Oct-2024 03:17 | 429617 | ||
| 46251_TS_DEWT_092021.nc | 27-Oct-2024 03:17 | 429613 | ||
| 46251_TS_DEWT_092022.nc | 27-Oct-2024 03:17 | 429610 | ||
| 46251_TS_DEWT_092023.nc | 27-Oct-2024 03:17 | 429621 | ||
| 46251_TS_DEWT_102013.nc | 27-Oct-2024 03:17 | 429615 | ||
| 46251_TS_DEWT_102015.nc | 27-Oct-2024 03:17 | 429612 | ||
| 46251_TS_DEWT_102016.nc | 27-Oct-2024 03:17 | 429617 | ||
| 46251_TS_DEWT_102017.nc | 27-Oct-2024 03:18 | 429621 | ||
| 46251_TS_DEWT_102018.nc | 27-Oct-2024 03:18 | 429833 | ||
| 46251_TS_DEWT_102019.nc | 27-Oct-2024 03:18 | 429833 | ||
| 46251_TS_DEWT_102020.nc | 27-Oct-2024 03:18 | 429835 | ||
| 46251_TS_DEWT_102021.nc | 27-Oct-2024 03:18 | 429782 | ||
| 46251_TS_DEWT_102022.nc | 27-Oct-2024 03:18 | 450006 | ||
| 46251_TS_DEWT_102023.nc | 27-Oct-2024 03:18 | 450316 | ||
| 46251_TS_DEWT_112013.nc | 27-Oct-2024 03:18 | 450115 | ||
| 46251_TS_DEWT_112015.nc | 27-Oct-2024 03:18 | 449789 | ||
| 46251_TS_DEWT_112016.nc | 27-Oct-2024 03:18 | 449956 | ||
| 46251_TS_DEWT_112017.nc | 27-Oct-2024 03:18 | 450997 | ||
| 46251_TS_DEWT_112018.nc | 27-Oct-2024 03:18 | 429820 | ||
| 46251_TS_DEWT_112019.nc | 27-Oct-2024 03:18 | 449796 | ||
| 46251_TS_DEWT_112020.nc | 27-Oct-2024 03:18 | 429835 | ||
| 46251_TS_DEWT_112021.nc | 27-Oct-2024 03:18 | 429836 | ||
| 46251_TS_DEWT_112022.nc | 27-Oct-2024 03:18 | 1265673 | ||
| 46251_TS_DEWT_112023.nc | 27-Oct-2024 03:18 | 1265404 | ||
| 46251_TS_DEWT_122013.nc | 27-Oct-2024 03:18 | 1260105 | ||
| 46251_TS_DEWT_122015.nc | 27-Oct-2024 03:18 | 1263915 | ||
| 46251_TS_DEWT_122016.nc | 27-Oct-2024 03:18 | 1270472 | ||
| 46251_TS_DEWT_122017.nc | 27-Oct-2024 03:18 | 1267760 | ||
| 46251_TS_DEWT_122018.nc | 27-Oct-2024 03:19 | 5391138 | ||
| 46251_TS_DEWT_122019.nc | 27-Oct-2024 03:19 | 427061 | ||
| 46251_TS_DEWT_122020.nc | 27-Oct-2024 03:19 | 429268 | ||
| 46251_TS_DEWT_122021.nc | 27-Oct-2024 03:19 | 429270 | ||
| 46251_TS_DEWT_122022.nc | 27-Oct-2024 03:19 | 429277 | ||
| 46251_TS_DEWT_122023.nc | 27-Oct-2024 03:19 | 429272 | ||